FW4628 Weather Reports


Display with metric or nautical units.
time (UTC)temp
F
wind
direction
speed
MPH
gust
MPH
rain 1hr
in
rain 24hr
in
rain mn
in
humidity
%
barometer
mb
20260506222531 67 22 0.0 0.0 0.00 0.00 0.00 33 1010.7
20260506222423 67 22 0.0 0.0 0.00 0.00 0.00 33 1010.7
20260506222059 67 44 0.0 0.0 0.00 0.00 0.00 33 1010.7
20260506221909 68 28 0.0 0.0 0.00 0.00 0.00 33 1010.7
20260506221530 67 165 0.0 0.0 0.00 0.00 0.00 32 1010.7
20260506221405 68 165 0.0 0.0 0.00 0.00 0.00 32 1010.8
20260506221007 67 165 0.0 0.0 0.00 0.00 0.00 31 1010.7
20260506220928 67 165 0.0 0.0 0.00 0.00 0.00 31 1010.8
20260506220527 67 165 0.0 0.0 0.00 0.00 0.00 31 1010.8
20260506220419 67 165 0.0 0.0 0.00 0.00 0.00 30 1010.8
20260506220059 66 166 0.0 0.0 0.00 0.00 0.00 30 1010.7
20260506215905 67 166 0.0 0.0 0.00 0.00 0.00 30 1010.7
20260506215544 66 177 0.0 0.0 0.00 0.00 0.00 30 1010.6
20260506215408 67 184 0.0 0.0 0.00 0.00 0.00 30 1010.7
20260506215013 66 205 0.0 0.0 0.00 0.00 0.00 29 1010.6
20260506214903 67 161 0.0 0.0 0.00 0.00 0.00 29 1010.6
20260506214551 66 127 0.0 0.0 0.00 0.00 0.00 29 1010.6
20260506214357 67 126 0.0 0.0 0.00 0.00 0.00 29 1010.7
20260506214016 66 146 0.0 0.0 0.00 0.00 0.00 28 1010.7
20260506213916 66 146 0.0 0.0 0.00 0.00 0.00 29 1010.7
20260506213547 66 146 0.0 0.0 0.00 0.00 0.00 29 1010.7
20260506213406 66 146 0.0 0.0 0.00 0.00 0.00 29 1010.8
20260506213027 66 167 0.0 0.0 0.00 0.00 0.00 28 1010.8
20260506212902 66 200 0.0 0.0 0.00 0.00 0.00 28 1011.0
20260506212600 66 200 0.0 0.0 0.00 0.00 0.00 28 1010.9
20260506212422 66 200 0.0 0.0 0.00 0.00 0.00 28 1011.0
20260506212022 66 200 0.0 0.0 0.00 0.00 0.00 28 1011.0
20260506211911 66 200 0.0 0.0 0.00 0.00 0.00 27 1011.0
20260506211549 65 127 0.0 0.0 0.00 0.00 0.00 27 1011.0
20260506211400 66 127 0.0 0.0 0.00 0.00 0.00 27 1011.1
20260506211027 65 123 0.0 0.0 0.00 0.00 0.00 28 1011.1
20260506210922 66 123 0.0 0.0 0.00 0.00 0.00 28 1011.2
20260506210536 65 236 0.0 0.0 0.00 0.00 0.00 27 1011.2
20260506210412 66 232 0.0 0.0 0.00 0.00 0.00 27 1011.2
20260506205902 66 168 0.0 0.0 0.00 0.00 0.00 26 1011.1
20260506205537 66 164 0.0 0.0 0.00 0.00 0.00 25 1011.1
20260506205426 66 154 0.0 0.0 0.00 0.00 0.00 24 1011.1
20260506205004 65 154 0.0 0.0 0.00 0.00 0.00 23 1011.1
20260506204919 66 154 0.0 0.0 0.00 0.00 0.00 23 1011.1
20260506204540 65 154 0.0 0.0 0.00 0.00 0.00 23 1011.0
20260506204413 66 152 0.0 0.0 0.00 0.00 0.00 22 1011.0
20260506204008 65 163 0.0 0.0 0.00 0.00 0.00 21 1011.0
20260506203907 66 178 0.0 0.0 0.00 0.00 0.00 19 1011.1
20260506203537 65 184 0.0 0.0 0.00 0.00 0.00 19 1011.0
20260506203425 65 179 0.0 0.0 0.00 0.00 0.00 18 1011.0
20260506203050 64 178 0.0 0.0 0.00 0.00 0.00 16 1011.0
20260506202915 65 149 0.0 0.0 0.00 0.00 0.00 16 1011.0
20260506202509 64 181 0.0 0.0 0.00 0.00 0.00 15 1011.1
20260506202401 64 167 0.0 0.0 0.00 0.00 0.00 15 1011.1
20260506202046 63 173 0.0 0.0 0.00 0.00 0.00 13 1011.1
20260506201857 64 167 0.0 0.0 0.00 0.00 0.00 11 1011.2
20260506201518 63 178 0.0 0.0 0.00 0.00 0.00 11 1011.2
20260506201424 63 182 0.0 0.0 0.00 0.00 0.00 12 1011.2
20260506201045 63 228 0.0 0.0 0.00 0.00 0.00 12 1011.2
20260506200914 63 228 0.0 0.0 0.00 0.00 0.00 11 1011.2
20260506200515 63 217 0.0 0.0 0.00 0.00 0.00 8 1011.3
20260506200406 63 217 0.0 0.0 0.00 0.00 0.00 9 1011.3
20260506200051 62 217 0.0 0.0 0.00 0.00 0.00 10 1011.3
20260506195923 63 217 0.0 0.0 0.00 0.00 0.00 11 1011.4
20260506195507 62 217 0.0 0.0 0.00 0.00 0.00 11 1011.4
20260506195409 63 196 0.0 0.0 0.00 0.00 0.00 11 1011.4
20260506195138 62 196 0.0 0.0 0.00 0.00 0.00 10 1011.4
20260506191056 61 242 0.0 0.0 0.00 0.00 0.00 6 1011.3
20260506190854 62 232 0.0 0.0 0.00 0.00 0.00 4 1011.4
20260506190543 61 186 0.0 0.0 0.00 0.00 0.00 5 1011.4
20260506190420 62 233 0.0 0.0 0.00 0.00 0.00 7 1011.5
20260506190002 62 200 0.0 0.0 0.00 0.00 0.00 8 1011.4
20260506185908 62 217 0.0 0.0 0.00 0.00 0.00 7 1011.4
20260506185533 62 234 0.0 0.0 0.00 0.00 0.00 3 1011.4
20260506185357 62 234 0.0 0.0 0.00 0.00 0.00 1 1011.4
20260506185008 61 225 0.0 0.0 0.00 0.00 0.00 100 1011.3
20260506184920 62 223 0.0 0.0 0.00 0.00 0.00 100 1011.3
20260506184542 61 175 0.0 0.0 0.00 0.00 0.00 100 1011.2
20260506184412 61 175 0.0 0.0 0.00 0.00 0.00 100 1011.2
20260506184006 61 177 0.0 0.0 0.00 0.00 0.00 100 1011.3
20260506183902 61 176 0.0 0.0 0.00 0.00 0.00 100 1011.3
20260506183549 60 155 0.0 0.0 0.00 0.00 0.00 100 1011.3
20260506183417 60 174 0.0 0.0 0.00 0.00 0.00 100 1011.3
20260506183100 59 257 0.0 0.0 0.00 0.00 0.00 100 1011.3
20260506182921 60 256 0.0 0.0 0.00 0.00 0.00 100 1011.4
20260506182535 59 256 0.0 0.0 0.00 0.00 0.00 100 1011.4
20260506182414 59 256 0.0 0.0 0.00 0.00 0.00 100 1011.4
20260506182057 58 257 0.0 0.0 0.00 0.00 0.00 100 1011.4
20260506181901 59 256 0.0 0.0 0.00 0.00 0.00 100 1011.4
20260506181533 58 223 0.0 0.0 0.00 0.00 0.00 100 1011.3
20260506181403 58 171 0.0 0.0 0.00 0.00 0.00 100 1011.4
20260506181059 58 121 0.0 0.0 0.00 0.00 0.00 100 1011.3
20260506180854 58 121 0.0 0.0 0.00 0.00 0.00 100 1011.4
20260506180538 58 121 0.0 0.0 0.00 0.00 0.00 100 1011.3
20260506180444 58 121 0.0 0.0 0.00 0.00 0.00 100 1011.4
20260506180101 57 121 0.0 0.0 0.00 0.00 0.00 100 1011.4
20260506175913 58 121 0.0 0.0 0.00 0.00 0.00 100 1011.4
20260506175510 57 121 0.0 0.0 0.00 0.00 0.00 100 1011.3
20260506175403 58 121 0.0 0.0 0.00 0.00 0.00 100 1011.4
20260506175039 57 121 0.0 0.0 0.00 0.00 0.00 100 1011.4
20260506174939 58 121 0.0 0.0 0.00 0.00 0.00 100 1011.4
20260506174555 57 121 0.0 0.0 0.00 0.00 0.00 100 1011.4
20260506174411 58 111 0.0 0.0 0.00 0.00 0.00 100 1011.4
20260506174028 57 111 0.0 0.0 0.00 0.00 0.00 100 1011.3
20260506173907 58 111 0.0 0.0 0.00 0.00 0.00 100 1011.3
20260506173556 57 123 0.0 0.0 0.00 0.00 0.00 100 1011.2
20260506173358 57 123 0.0 0.0 0.00 0.00 0.00 100 1011.2
20260506173035 57 123 0.0 0.0 0.00 0.00 0.00 100 1011.1
20260506172856 57 123 0.0 0.0 0.00 0.00 0.00 100 1011.2
20260506172503 56 123 0.0 0.0 0.00 0.00 0.00 100 1011.1
20260506172419 57 123 0.0 0.0 0.00 0.00 0.00 100 1011.2
20260506172035 56 123 0.0 0.0 0.00 0.00 0.00 100 1011.2
20260506171909 57 123 0.0 0.0 0.00 0.00 0.00 100 1011.1
20260506171602 56 123 0.0 0.0 0.00 0.00 0.00 100 1011.0
20260506171401 57 123 0.0 0.0 0.00 0.00 0.00 100 1011.2
20260506171034 56 123 0.0 0.0 0.00 0.00 0.00 100 1011.2
20260506170901 57 123 0.0 0.0 0.00 0.00 0.00 100 1011.2
20260506170507 56 123 0.0 0.0 0.00 0.00 0.00 100 1011.2
20260506170424 57 123 0.0 0.0 0.00 0.00 0.00 100 1011.3
20260506170050 56 123 0.0 0.0 0.00 0.00 0.00 100 1011.2
20260506165912 57 123 0.0 0.0 0.00 0.00 0.00 100 1011.3
20260506165509 56 123 0.0 0.0 0.00 0.00 0.00 100 1011.2
20260506165409 57 122 0.0 0.0 0.00 0.00 0.00 100 1011.1
20260506165044 56 123 0.0 0.0 0.00 0.00 0.00 100 1011.0
20260506164902 57 123 0.0 0.0 0.00 0.00 0.00 100 1011.1
20260506164508 56 123 0.0 0.0 0.00 0.00 0.00 100 1011.2
20260506164357 57 123 0.0 0.0 0.00 0.00 0.00 100 1011.2
20260506164047 56 123 0.0 0.0 0.00 0.00 0.00 100 1011.1
20260506163855 57 122 0.0 0.0 0.00 0.00 0.00 100 1011.2
20260506163517 56 123 0.0 0.0 0.00 0.00 0.00 100 1011.2
20260506163444 57 123 0.0 0.0 0.00 0.00 0.00 100 1011.2
20260506163034 56 123 0.0 0.0 0.00 0.00 0.00 100 1011.0
20260506162913 57 123 0.0 0.0 0.00 0.00 0.00 100 1011.0
20260506162557 56 123 0.0 0.0 0.00 0.00 0.00 100 1010.9
20260506162432 57 123 0.0 0.0 0.00 0.00 0.00 100 1011.0
20260506162103 56 92 0.0 0.0 0.00 0.00 0.00 100 1010.9
20260506161901 56 92 0.0 0.0 0.00 0.00 0.00 100 1010.9
20260506161541 56 92 0.0 0.0 0.00 0.00 0.00 100 1010.9
20260506161355 56 92 0.0 0.0 0.00 0.00 0.00 100 1011.0
20260506161045 56 92 0.0 0.0 0.00 0.00 0.00 100 1011.0
20260506160855 56 92 0.0 0.0 0.00 0.00 0.00 100 1010.9
20260506160555 55 92 0.0 0.0 0.00 0.00 0.00 100 1010.8
20260506160415 56 92 0.0 0.0 0.00 0.00 0.00 100 1010.7
20260506160026 55 92 0.0 0.0 0.00 0.00 0.00 100 1010.7
20260506155908 56 92 0.0 0.0 0.00 0.00 0.00 100 1010.9
20260506155556 55 92 0.0 0.0 0.00 0.00 0.00 100 1010.7
20260506155356 56 92 0.0 0.0 0.00 0.00 0.00 100 1010.5
20260506155023 55 92 0.0 0.0 0.00 0.00 0.00 100 1010.4
20260506154917 55 92 0.0 0.0 0.00 0.00 0.00 100 1010.3
20260506154604 55 92 0.0 0.0 0.00 0.00 0.00 100 1010.2
20260506154417 55 92 0.0 0.0 0.00 0.00 0.00 100 1010.3
20260506154005 54 60 0.0 0.0 0.00 0.00 0.00 100 1010.6
20260506153907 55 60 0.0 0.0 0.00 0.00 0.00 100 1010.7
20260506153533 54 57 0.0 0.0 0.00 0.00 0.00 100 1010.9
20260506044020 62 313 0.0 0.0 0.00 0.00 0.00 26 1006.7
20260506043914 62 313 0.0 0.0 0.00 0.00 0.00 27 1006.7
20260506043546 62 313 0.0 0.0 0.00 0.00 0.00 27 1006.6
20260506043420 62 313 0.0 0.0 0.00 0.00 0.00 27 1006.6
20260506043010 62 313 0.0 0.0 0.00 0.00 0.00 28 1006.6
20260506042907 63 313 0.0 0.0 0.00 0.00 0.00 28 1006.5
20260506042552 62 313 0.0 0.0 0.00 0.00 0.00 29 1006.5
20260506042407 63 313 0.0 0.0 0.00 0.00 0.00 29 1006.5
20260506042023 62 313 0.0 0.0 0.00 0.00 0.00 29 1006.4
20260506041922 63 313 0.0 0.0 0.00 0.00 0.00 30 1006.4
20260506041532 62 313 0.0 0.0 0.00 0.00 0.00 30 1006.4
20260506041412 63 313 0.0 0.0 0.00 0.00 0.00 30 1006.4
20260506041057 62 313 0.0 0.0 0.00 0.00 0.00 30 1006.3
20260506040903 63 313 0.0 0.0 0.00 0.00 0.00 30 1006.3
20260506040526 62 313 0.0 0.0 0.00 0.00 0.00 30 1006.3
20260506040443 63 313 0.0 0.0 0.00 0.00 0.00 30 1006.3
20260506040058 62 313 0.0 0.0 0.00 0.00 0.00 29 1006.3
20260506035921 63 313 0.0 0.0 0.00 0.00 0.00 29 1006.3
20260506035556 63 313 0.0 0.0 0.00 0.00 0.00 29 1006.1
20260506035421 63 313 0.0 0.0 0.00 0.00 0.00 30 1006.1
20260506035002 63 313 0.0 0.0 0.00 0.00 0.00 31 1006.1
20260506034920 63 313 0.0 0.0 0.00 0.00 0.00 31 1006.1
20260506034535 63 313 0.0 0.0 0.00 0.00 0.00 32 1006.0
20260506034409 63 313 0.0 0.0 0.00 0.00 0.00 32 1006.0
20260506034056 63 313 0.0 0.0 0.00 0.00 0.00 32 1006.0
20260506034001 63 313 0.0 0.0 0.00 0.00 0.00 32 1006.0
20260506033948 63 313 0.0 0.0 0.00 0.00 0.00 32 1006.0
20260506033505 63 313 0.0 0.0 0.00 0.00 0.00 32 1005.9
20260506033423 63 313 0.0 0.0 0.00 0.00 0.00 32 1005.9
20260506033041 63 313 0.0 0.0 0.00 0.00 0.00 33 1005.9
20260506032914 63 313 0.0 0.0 0.00 0.00 0.00 33 1005.9
20260506032556 63 313 0.0 0.0 0.00 0.00 0.00 33 1005.9
20260506032417 63 313 0.0 0.0 0.00 0.00 0.00 33 1005.9
20260506032004 63 313 0.0 0.0 0.00 0.00 0.00 33 1005.8
20260506031915 64 313 0.0 0.0 0.00 0.00 0.00 33 1005.8
20260506031550 63 313 0.0 0.0 0.00 0.00 0.00 33 1005.8
20260506031406 64 313 0.0 0.0 0.00 0.00 0.00 33 1005.8
20260506031011 63 313 0.0 0.0 0.00 0.00 0.00 33 1005.8
20260506030947 64 313 0.0 0.0 0.00 0.00 0.00 34 1005.8
20260506030511 63 313 0.0 0.0 0.00 0.00 0.00 34 1005.7
20260506030412 64 313 0.0 0.0 0.00 0.00 0.00 34 1005.7
20260506030047 63 313 0.0 0.0 0.00 0.00 0.00 34 1005.6
20260506025907 64 313 0.0 0.0 0.00 0.00 0.00 34 1005.7
20260506025521 63 313 0.0 0.0 0.00 0.00 0.00 34 1005.6
20260506025358 64 313 0.0 0.0 0.00 0.00 0.00 34 1005.7
20260506025044 63 313 0.0 0.0 0.00 0.00 0.00 34 1005.6
20260506024939 64 313 0.0 0.0 0.00 0.00 0.00 34 1005.6
20260506024556 63 313 0.0 0.0 0.00 0.00 0.00 34 1005.5
20260506024415 64 313 0.0 0.0 0.00 0.00 0.00 34 1005.6
20260506024028 64 313 0.0 0.0 0.00 0.00 0.00 34 1005.5
20260506023902 64 313 0.0 0.0 0.00 0.00 0.00 34 1005.5
20260506023556 64 313 0.0 0.0 0.00 0.00 0.00 34 1005.6
20260506023357 64 313 0.0 0.0 0.00 0.00 0.00 34 1005.6
20260506023037 64 313 0.0 0.0 0.00 0.00 0.00 34 1005.6
20260506022857 64 313 0.0 0.0 0.00 0.00 0.00 34 1005.6
20260506022506 64 313 0.0 0.0 0.00 0.00 0.00 34 1005.6
20260506022421 64 313 0.0 0.0 0.00 0.00 0.00 34 1005.6
20260506022036 64 313 0.0 0.0 0.00 0.00 0.00 34 1005.6
20260506021911 64 313 0.0 0.0 0.00 0.00 0.00 35 1005.6
20260506021510 64 313 0.0 0.0 0.00 0.00 0.00 34 1005.5
20260506021433 64 313 0.0 0.0 0.00 0.00 0.00 34 1005.6
20260506021033 64 313 0.0 0.0 0.00 0.00 0.00 34 1005.5
20260506020914 65 313 0.0 0.0 0.00 0.00 0.00 34 1005.6
20260506020558 64 313 0.0 0.0 0.00 0.00 0.00 34 1005.6
20260506020404 65 313 0.0 0.0 0.00 0.00 0.00 34 1005.6
20260506020028 64 313 0.0 0.0 0.00 0.00 0.00 34 1005.6
20260506015923 65 313 0.0 0.0 0.00 0.00 0.00 34 1005.6
20260506015558 65 313 0.0 0.0 0.00 0.00 0.00 34 1005.5
20260506015412 65 313 0.0 0.0 0.00 0.00 0.00 34 1005.6
20260506015031 65 313 0.0 0.0 0.00 0.00 0.00 34 1005.5
20260506014904 65 313 0.0 0.0 0.00 0.00 0.00 34 1005.6
20260506014556 65 313 0.0 0.0 0.00 0.00 0.00 34 1005.5
20260506014356 65 313 0.0 0.0 0.00 0.00 0.00 34 1005.6
20260506014048 65 313 0.0 0.0 0.00 0.00 0.00 34 1005.6
20260506013926 65 313 0.0 0.0 0.00 0.00 0.00 34 1005.6
20260506013512 65 313 0.0 0.0 0.00 0.00 0.00 34 1005.6
20260506013418 65 313 0.0 0.0 0.00 0.00 0.00 34 1005.6
20260506013045 65 313 0.0 0.0 0.00 0.00 0.00 33 1005.6
20260506012915 65 313 0.0 0.0 0.00 0.00 0.00 33 1005.6
20260506012510 65 62 0.0 0.0 0.00 0.00 0.00 33 1005.5
20260506012400 65 63 0.0 0.0 0.00 0.00 0.00 32 1005.5
20260506012043 65 298 0.0 0.0 0.00 0.00 0.00 32 1005.5
20260506011853 65 298 0.0 0.0 0.00 0.00 0.00 31 1005.6
20260506011518 64 298 0.0 0.0 0.00 0.00 0.00 31 1005.6
20260506011419 64 298 0.0 0.0 0.00 0.00 0.00 31 1005.6
20260506011051 64 298 0.0 0.0 0.00 0.00 0.00 31 1005.6
20260506010907 64 10 0.0 0.0 0.00 0.00 0.00 31 1005.6
20260506010522 63 10 0.0 0.0 0.00 0.00 0.00 31 1005.6
20260506010358 64 10 0.0 0.0 0.00 0.00 0.00 31 1005.7
20260506010057 63 9 0.0 0.0 0.00 0.00 0.00 31 1005.6
20260506005919 64 9 0.0 0.0 0.00 0.00 0.00 30 1005.6
20260506005509 63 12 0.0 0.0 0.00 0.00 0.00 30 1005.5
20260506005408 64 12 0.0 0.0 0.00 0.00 0.00 30 1005.6
20260506005041 63 323 0.0 0.0 0.00 0.00 0.00 30 1005.6
20260506004857 64 323 0.0 0.0 0.00 0.00 0.00 30 1005.6
20260506004522 63 323 0.0 0.0 0.00 0.00 0.00 30 1005.7
20260506004422 64 323 0.0 0.0 0.00 0.00 0.00 31 1005.7
20260506004048 63 323 0.0 0.0 0.00 0.00 0.00 30 1005.7
20260506003917 64 323 0.0 0.0 0.00 0.00 0.00 30 1005.7
20260506003510 63 350 0.0 0.0 0.00 0.00 0.00 30 1005.7
20260506003403 64 350 0.0 0.0 0.00 0.00 0.00 30 1005.7
20260506003048 63 350 0.0 0.0 0.00 0.00 0.00 30 1005.7
20260506002857 64 348 0.0 0.0 0.00 0.00 0.00 29 1005.7
20260506002516 63 348 0.0 0.0 0.00 0.00 0.00 29 1005.7
20260506002422 64 348 0.0 0.0 0.00 0.00 0.00 29 1005.7
20260506002028 63 348 0.0 0.0 0.00 0.00 0.00 30 1005.7
20260506001941 63 20 0.0 0.0 0.00 0.00 0.00 30 1005.7
20260506001536 63 20 0.0 0.0 0.00 0.00 0.00 30 1005.8
20260506001412 63 20 0.0 0.0 0.00 0.00 0.00 30 1005.8
20260506001102 63 24 0.0 0.0 0.00 0.00 0.00 30 1005.8
20260506000900 63 5 0.0 0.0 0.00 0.00 0.00 30 1005.8
20260506000532 63 5 0.0 0.0 0.00 0.00 0.00 31 1005.8
20260506000445 63 5 0.0 0.0 0.00 0.00 0.00 31 1005.8
20260506000046 63 11 0.0 0.0 0.00 0.00 0.00 31 1005.8
20260505235914 63 12 0.0 0.0 0.00 0.00 0.00 31 1005.9
20260505235525 63 15 0.0 0.0 0.00 0.00 0.00 31 1005.9
20260505235414 63 355 0.0 0.0 0.00 0.00 0.00 31 1005.9
20260505235036 63 21 0.0 0.0 0.00 0.00 0.00 31 1006.0
20260505234907 63 17 0.0 0.0 0.00 0.00 0.00 31 1006.0
20260505234605 63 9 0.0 0.0 0.00 0.00 0.00 31 1006.0
20260505234354 64 15 0.0 0.0 0.00 0.00 0.00 31 1006.1
20260505234032 63 16 0.0 0.0 0.00 0.00 0.00 31 1006.1
20260505233940 64 30 0.0 0.0 0.00 0.00 0.00 31 1006.1
20260505233543 63 18 0.0 0.0 0.00 0.00 0.00 31 1006.0
20260505233411 64 17 0.0 0.0 0.00 0.00 0.00 31 1006.1
20260505233005 63 46 0.0 0.0 0.00 0.00 0.00 31 1006.0
20260505232902 64 35 0.0 0.0 0.00 0.00 0.00 31 1006.0
20260505232549 63 9 0.0 0.0 0.00 0.00 0.00 31 1006.0
20260505232404 64 22 0.0 0.0 0.00 0.00 0.00 31 1006.1
20260505232058 63 36 0.0 0.0 0.00 0.00 0.00 31 1006.0
20260505231923 64 360 0.0 0.0 0.00 0.00 0.00 31 1006.0
20260505231504 63 335 0.0 0.0 0.00 0.00 0.00 31 1006.1
20260505231400 64 335 0.0 0.0 0.00 0.00 0.00 31 1006.1
20260505231043 63 291 0.0 0.0 0.00 0.00 0.00 31 1006.1
20260505230857 64 291 0.0 0.0 0.00 0.00 0.00 32 1006.1
20260505230521 63 291 0.0 0.0 0.00 0.00 0.00 32 1006.1
20260505230353 64 291 0.0 0.0 0.00 0.00 0.00 32 1006.1
20260505230058 63 291 0.0 0.0 0.00 0.00 0.00 31 1006.1
20260505225923 64 291 0.0 0.0 0.00 0.00 0.00 31 1006.1
20260505225514 63 291 0.0 0.0 0.00 0.00 0.00 32 1006.2
20260505225403 64 289 0.0 0.0 0.00 0.00 0.00 32 1006.2
20260505225020 63 289 0.0 0.0 0.00 0.00 0.00 32 1006.2
20260505224855 64 289 0.0 0.0 0.00 0.00 0.00 32 1006.2
20260505224555 64 288 0.0 0.0 0.00 0.00 0.00 31 1006.2
20260505224418 64 313 0.0 0.0 0.00 0.00 0.00 31 1006.3
20260505224001 63 313 0.0 0.0 0.00 0.00 0.00 31 1006.3
20260505223916 64 313 0.0 0.0 0.00 0.00 0.00 31 1006.3
20260505223532 63 14 0.0 0.0 0.00 0.00 0.00 30 1006.3
20260505223407 64 14 0.0 0.0 0.00 0.00 0.00 31 1006.3
20260505223014 63 14 0.0 0.0 0.00 0.00 0.00 31 1006.3
20260505222907 64 300 0.0 0.0 0.00 0.00 0.00 31 1006.4